Weather History for KVOK - May, 2013

Change the Weather History Date:

Sunday, May 19, 2013

  Actual Average Record
Temperature  
Mean Temperature 70 °F -  
Max Temperature 84 °F 64 °F 87 °F (2012)
Min Temperature 57 °F 49 °F 26 °F (2008)
Cooling Degree Days 6    
Growing Degree Days 20 (Base 50)    
Moisture  
Dew Point 61 °F    
Average Humidity 79    
Maximum Humidity 100    
Minimum Humidity 47    
Precipitation  
Precipitation 0.04 in - - ()
Sea Level Pressure  
Sea Level Pressure 29.81 in    
Wind  
Wind Speed 8 mph (SE)    
Max Wind Speed 23 mph    
Max Gust Speed 32 mph    
Visibility 8 miles    
Events Rain    
Averages and records for this station are not official NWS values.
T = Trace of Precipitation, MM = Missing Value Source: NWS Daily Summary

Daily Weather History Graph

Daily Weather History Graph

Search for Another Location

Airport or City:

Trip Planner

Search our weather history database for the weather conditions in past years. The results will help you decide how hot, cold, wet, or windy it might be!

Date:

Astronomy

May. 19, 2013 Rise Set
Actual Time 5:30 AM CDT 8:24 PM CDT
Civil Twilight 4:56 AM CDT 8:58 PM CDT
Nautical Twilight 4:13 AM CDT 9:42 PM CDT
Astronomical Twilight 3:23 AM CDT 10:32 PM CDT
Moon 2:17 PM CDT (5/19) 2:06 AM CDT (5/19)
Length of Visible Light 16h 01m
Length of Day
14h 54m
Waxing Gibbous, 65% of the Moon is Illuminated
May 19
Waxing Gibbous
May 24
Full
May 31
Last Quarter
Jun 8
New
Jun 16
First Quarter

Hourly Weather History & Observations

Time (CDT) Temp. Heat Index Dew Point Humidity Pressure Visibility Wind Dir Wind Speed Gust Speed Precip Events Conditions
12:58 AM 65.3 °F - 61.0 °F 86% 29.90 in 10.0 mi SE 4.6 mph - N/A   Clear
1:58 AM 63.1 °F - 60.3 °F 90% 29.87 in 10.0 mi SE 3.5 mph - N/A   Clear
2:43 AM 60.8 °F - 59.0 °F 94% 29.88 in 9.0 mi ESE 4.6 mph - N/A   Clear
2:53 AM 60.8 °F - 60.8 °F 100% 29.89 in 10.0 mi SE 3.5 mph - N/A   Clear
2:58 AM 61.9 °F - 59.9 °F 93% 29.89 in 10.0 mi SE 3.5 mph - N/A   Clear
3:03 AM 62.6 °F - 60.8 °F 94% 29.90 in 10.0 mi SE 2.3 mph - N/A   Clear
3:48 AM 59.0 °F - 59.0 °F 100% 29.91 in 5.0 mi ESE 3.5 mph - N/A   Clear
3:53 AM 59.0 °F - 59.0 °F 100% 29.91 in 5.0 mi ESE 4.6 mph - N/A   Clear
3:58 AM 59.4 °F - 59.4 °F 100% 29.91 in 5.0 mi East 5.8 mph - N/A   Clear
4:08 AM 59.0 °F - 59.0 °F 100% 29.92 in 5.0 mi ESE 4.6 mph - N/A   Clear
4:18 AM 57.2 °F - 57.2 °F 100% 29.91 in 4.0 mi East 5.8 mph - N/A   Clear
4:53 AM 57.2 °F - 57.2 °F 100% 29.90 in 5.0 mi East 4.6 mph - N/A   Clear
4:58 AM 57.9 °F - 57.9 °F 100% 29.90 in 5.0 mi East 4.6 mph - N/A   Clear
5:08 AM 57.2 °F - 57.2 °F 100% 29.89 in 5.0 mi East 6.9 mph - N/A   Clear
5:18 AM 57.2 °F - 57.2 °F 100% 29.90 in 4.0 mi East 5.8 mph - N/A   Clear
5:58 AM 57.2 °F - 57.2 °F 100% 29.90 in 2.5 mi East 8.1 mph - N/A   Clear
6:13 AM 59.0 °F - 59.0 °F 100% 29.90 in 3.0 mi ESE 8.1 mph - N/A   Clear
6:58 AM 60.6 °F - 60.6 °F 100% 29.90 in 4.0 mi SE 5.8 mph - N/A   Clear
7:58 AM 66.4 °F - 62.2 °F 86% 29.92 in 10.0 mi South 5.8 mph - N/A   Clear
8:58 AM 68.0 °F - 62.6 °F 83% 29.89 in 10.0 mi East 9.2 mph - N/A   Overcast
9:58 AM 73.4 °F - 64.4 °F 73% 29.85 in 10.0 mi SE 12.7 mph - N/A   Overcast
10:58 AM 73.4 °F - 62.6 °F 69% 29.83 in 10.0 mi SE 13.8 mph - N/A   Overcast
11:58 AM 75.2 °F - 64.4 °F 69% 29.78 in 10.0 mi SSE 12.7 mph 21.9 mph N/A   Overcast
12:58 PM 80.6 °F 82.3 °F 64.4 °F 58% 29.78 in 10.0 mi SSE 11.5 mph 20.7 mph N/A   Mostly Cloudy
1:58 PM 80.6 °F 81.8 °F 62.6 °F 54% 29.78 in 10.0 mi SSE 17.3 mph 21.9 mph N/A   Mostly Cloudy
2:58 PM 82.4 °F 83.9 °F 64.4 °F 54% 29.76 in 10.0 mi SE 18.4 mph 25.3 mph N/A   Mostly Cloudy
3:58 PM 84.2 °F 85.0 °F 62.6 °F 48% 29.73 in 10.0 mi SSE 19.6 mph 27.6 mph N/A   Mostly Cloudy
4:58 PM 84.7 °F 85.6 °F 63.3 °F 48% 29.70 in 10.0 mi SSE 13.8 mph 21.9 mph N/A   Clear
5:58 PM 83.7 °F 84.1 °F 61.7 °F 47% 29.70 in 10.0 mi SSE 11.5 mph - N/A   Clear
6:58 PM 80.1 °F 80.7 °F 58.6 °F 48% 29.69 in 10.0 mi SSW 4.6 mph - N/A   Clear
7:58 PM 76.5 °F - 56.5 °F 50% 29.70 in 10.0 mi ESE 6.9 mph - N/A   Partly Cloudy
8:58 PM 73.0 °F - 55.9 °F 55% 29.66 in 10.0 mi East 12.7 mph - N/A   Clear
9:58 PM 73.9 °F - 60.4 °F 63% 29.62 in 10.0 mi ESE 13.8 mph 20.7 mph N/A   Clear
10:58 PM 74.1 °F - 62.4 °F 67% 29.64 in 10.0 mi ESE 12.7 mph 20.7 mph N/A   Partly Cloudy
11:44 PM 73.4 °F - 62.6 °F 69% 29.70 in 10.0 mi West 17.3 mph 25.3 mph N/A   Mostly Cloudy
11:45 PM 73.4 °F - 62.6 °F 69% 29.70 in 10.0 mi West 23.0 mph 28.8 mph N/A Rain Light Rain
11:50 PM 71.6 °F - 62.6 °F 73% 29.70 in 7.0 mi West 20.7 mph 28.8 mph N/A Rain Light Rain
11:55 PM 68.0 °F - 60.8 °F 78% 29.70 in 3.0 mi West 17.3 mph 32.2 mph N/A Rain Rain
11:58 PM 68.0 °F - 60.8 °F 78% 29.70 in 3.0 mi West 15.0 mph 32.2 mph 0.04 in Rain Rain